Back to catalog

STARLINK-4783

AliveCommunicationsVLEO
NORAD 53835·PAYLOAD·🇺🇸 United States

Launched Sep 19, 2022 from Cape Canaveral Space Force Station

Loading…

Next Passes (next 24 hours)

TLE

FreshSource: CelesTrak SupGP

Epoch: Sep 14, 2026, 21:07 UTC

1 53835C 22114T   26257.88034722 -.00023162  00000+0 -14523-2 0  2579
2 53835  53.1591 173.9673 0001497  94.3232 341.5509 15.08851120    19

Track STARLINK-4783 in real time with AllMySat

Download on the App Store